Location: Borojevi?i
(45.0486°N, 16.2297°E)
Time: 16:32:30
(UTC+00:00)

Cosmos 2360 - Pass Details

Date: 08 August 2020
Orbit: 844 x 858 km, 70.8° (Epoch: 18 September)

Event Time Altitude Azimuth Distance (km) Brightness Sun altitude
Rises 19:35:34 0° 335° (NNW) 3,442 8.6 -13.4°
Reaches altitude 10° 19:38:04 10° 339° (NNW) 2,502 7.7 -13.8°
Maximum altitude 19:43:48 66° 61° (ENE) 938 4.3 -14.5°
Enters shadow 19:47:29 22° 139° (SE) 1,770 5.2 -15.0°
